Total_Precipitation_Accumulation
0.00 0.00 0.00 0.00 0.00 0.00 0.00 0.02 0.03 0.03 0.03 0.03 0.05 0.13 0.23 0.32 0.46 0.64 0.69 0.63 0.68 0.79 1.05 1.26 1.40 1.35 1.53 1.69 1.89 2.01 2.20 2.66 3.13 3.13 2.86 2.68 2.40 2.19 2.02 1.90 1.85 1.88 1.91 2.09
0.00 0.00 0.00 0.00 0.00 0.01 0.01 0.02 0.04 0.03 0.04 0.05 0.11 0.22 0.34 0.47 0.65 0.70 0.54 0.52 0.69 0.91 1.21 1.45 1.57 1.56 1.64 1.95 2.34 2.52 2.67 3.13 3.43 3.35 3.23 3.04 2.85 2.50 2.37 2.25 2.12 1.93 1.85 1.98
0.01 0.01 0.00 0.00 0.01 0.01 0.01 0.02 0.03 0.04 0.05 0.09 0.14 0.35 0.56 0.68 0.79 0.70 0.60 0.64 0.75 0.85 1.12 1.31 1.28 1.33 1.43 1.59 1.81 2.10 2.53 3.00 3.18 3.27 3.23 3.13 3.06 2.65 2.50 2.35 2.19 2.01 1.89 1.86
0.01 0.01 0.01 0.01 0.01 0.01 0.01 0.02 0.02 0.02 0.04 0.09 0.15 0.39 0.70 1.02 1.07 0.79 0.66 0.68 0.76 1.03 1.21 1.10 1.00 1.09 1.18 1.18 1.44 1.71 2.09 2.47 2.71 2.87 2.91 2.95 2.87 2.68 2.62 2.46 2.13 1.91 1.79 1.79
0.01 0.01 0.02 0.03 0.02 0.02 0.02 0.02 0.02 0.02 0.03 0.05 0.10 0.32 0.74 1.21 1.26 0.82 0.69 0.73 0.89 1.09 1.04 0.92 0.93 1.05 1.09 1.13 1.37 1.59 1.83 2.13 2.38 2.49 2.49 2.50 2.41 2.34 2.29 2.15 1.92 1.77 1.66 1.60
0.02 0.03 0.03 0.03 0.02 0.03 0.03 0.04 0.05 0.06 0.09 0.18 0.23 0.38 0.80 1.17 1.01 0.71 0.68 0.64 0.73 0.88 0.90 0.92 0.98 1.04 1.10 1.28 1.47 1.68 1.89 2.14 2.27 2.13 1.98 1.96 1.97 2.01 1.94 1.81 1.66 1.50 1.42 1.35
0.11 0.08 0.05 0.04 0.05 0.05 0.05 0.07 0.18 0.31 0.43 0.53 0.48 0.59 1.10 0.97 0.71 0.62 0.65 0.64 0.62 0.70 0.75 0.80 0.98 1.19 1.24 1.21 1.23 1.42 1.71 2.02 2.05 1.88 1.71 1.63 1.62 1.68 1.67 1.58 1.50 1.44 1.32 1.24
0.25 0.21 0.09 0.07 0.09 0.09 0.08 0.12 0.28 0.34 0.32 0.45 0.47 0.83 1.23 0.90 0.63 0.53 0.55 0.58 0.52 0.46 0.39 0.40 0.49 0.60 0.57 0.57 0.59 0.65 0.78 1.00 1.12 1.10 1.10 1.10 1.14 1.21 1.26 1.36 1.33 1.33 1.28 1.17
0.13 0.11 0.07 0.09 0.13 0.14 0.19 0.21 0.19 0.31 0.31 0.39 0.50 0.74 0.80 0.59 0.53 0.49 0.50 0.48 0.42 0.35 0.29 0.28 0.29 0.32 0.37 0.38 0.42 0.51 0.58 0.66 0.72 0.72 0.71 0.73 0.79 0.89 0.96 1.03 1.07 1.10 1.10 1.05
0.06 0.06 0.06 0.06 0.09 0.13 0.15 0.21 0.35 0.51 0.51 0.44 0.45 0.79 0.99 0.90 0.81 0.67 0.61 0.55 0.44 0.34 0.29 0.27 0.28 0.32 0.40 0.48 0.57 0.63 0.62 0.58 0.55 0.55 0.56 0.54 0.60 0.66 0.72 0.75 0.78 0.78 0.80 0.83
0.04 0.03 0.07 0.13 0.16 0.15 0.15 0.21 0.35 0.48 0.50 0.51 0.53 0.67 0.60 0.66 0.76 0.83 0.83 0.69 0.48 0.35 0.30 0.29 0.28 0.31 0.36 0.45 0.52 0.59 0.60 0.57 0.55 0.53 0.53 0.53 0.52 0.52 0.55 0.61 0.62 0.64 0.66 0.68
0.02 0.04 0.07 0.12 0.11 0.07 0.12 0.20 0.33 0.50 0.54 0.55 0.58 0.62 0.36 0.38 0.50 0.59 0.58 0.46 0.33 0.27 0.25 0.24 0.23 0.25 0.28 0.35 0.42 0.46 0.48 0.52 0.52 0.47 0.48 0.50 0.48 0.45 0.47 0.48 0.49 0.52 0.56 0.58
0.02 0.04 0.10 0.24 0.24 0.12 0.15 0.15 0.22 0.33 0.41 0.45 0.57 0.63 0.37 0.37 0.44 0.47 0.45 0.39 0.30 0.27 0.26 0.25 0.23 0.24 0.26 0.32 0.39 0.43 0.44 0.48 0.50 0.47 0.47 0.44 0.47 0.48 0.45 0.39 0.38 0.39 0.43 0.49
0.02 0.02 0.05 0.11 0.11 0.08 0.10 0.13 0.16 0.23 0.35 0.32 0.30 0.41 0.41 0.40 0.42 0.42 0.39 0.32 0.26 0.23 0.23 0.22 0.24 0.26 0.27 0.27 0.29 0.34 0.42 0.50 0.46 0.43 0.42 0.41 0.40 0.40 0.42 0.40 0.37 0.35 0.37 0.41
0.02 0.02 0.03 0.04 0.05 0.06 0.10 0.11 0.13 0.17 0.19 0.27 0.25 0.34 0.42 0.38 0.34 0.31 0.30 0.27 0.22 0.20 0.18 0.17 0.17 0.18 0.19 0.22 0.25 0.29 0.30 0.38 0.44 0.45 0.42 0.41 0.40 0.37 0.34 0.33 0.30 0.30 0.30 0.30
0.02 0.02 0.03 0.08 0.13 0.14 0.16 0.17 0.15 0.14 0.14 0.17 0.22 0.30 0.28 0.25 0.25 0.26 0.26 0.24 0.22 0.17 0.14 0.12 0.11 0.11 0.12 0.14 0.18 0.21 0.22 0.27 0.33 0.36 0.34 0.37 0.38 0.37 0.36 0.31 0.27 0.26 0.26 0.29
0.02 0.01 0.02 0.08 0.19 0.20 0.27 0.18 0.16 0.16 0.16 0.23 0.37 0.39 0.29 0.27 0.24 0.21 0.18 0.16 0.12 0.09 0.08 0.07 0.06 0.06 0.07 0.07 0.09 0.16 0.20 0.21 0.25 0.28 0.31 0.33 0.37 0.40 0.38 0.29 0.26 0.25 0.26 0.28
0.03 0.02 0.03 0.07 0.18 0.29 0.25 0.09 0.06 0.09 0.08 0.10 0.17 0.18 0.18 0.20 0.17 0.13 0.10 0.08 0.06 0.04 0.03 0.03 0.02 0.02 0.03 0.04 0.06 0.13 0.20 0.23 0.26 0.31 0.36 0.38 0.38 0.41 0.41 0.35 0.32 0.32 0.32 0.32
0.02 0.02 0.03 0.05 0.10 0.19 0.11 0.06 0.07 0.09 0.10 0.05 0.08 0.09 0.08 0.07 0.07 0.08 0.04 0.02 0.01 0.01 0.01 0.01 0.01 0.02 0.03 0.05 0.09 0.15 0.20 0.26 0.32 0.37 0.41 0.43 0.43 0.44 0.44 0.43 0.43 0.45 0.46 0.39
0.04 0.03 0.03 0.04 0.10 0.17 0.10 0.06 0.07 0.09 0.20 0.11 0.07 0.05 0.03 0.02 0.06 0.08 0.02 0.00 0.00 0.00 0.00 0.01 0.01 0.03 0.06 0.09 0.14 0.22 0.25 0.32 0.36 0.37 0.38 0.38 0.43 0.48 0.51 0.52 0.55 0.56 0.57 0.50
0.04 0.04 0.04 0.05 0.10 0.09 0.04 0.05 0.06 0.15 0.24 0.05 0.01 0.01 0.01 0.02 0.05 0.03 0.01 0.00 0.00 0.00 0.01 0.02 0.03 0.08 0.14 0.13 0.19 0.25 0.28 0.33 0.35 0.38 0.39 0.41 0.44 0.50 0.53 0.62 0.68 0.71 0.69 0.65
0.04 0.05 0.05 0.08 0.13 0.12 0.03 0.02 0.03 0.05 0.04 0.02 0.02 0.02 0.02 0.01 0.01 0.01 0.01 0.01 0.01 0.02 0.02 0.03 0.06 0.12 0.18 0.20 0.27 0.31 0.32 0.34 0.38 0.43 0.43 0.43 0.48 0.42 0.43 0.63 0.73 0.78 0.80 0.74
0.02 0.03 0.04 0.05 0.06 0.03 0.01 0.02 0.02 0.02 0.03 0.03 0.02 0.02 0.01 0.01 0.01 0.01 0.01 0.02 0.03 0.03 0.04 0.06 0.10 0.14 0.17 0.23 0.36 0.46 0.46 0.46 0.49 0.54 0.56 0.57 0.55 0.56 0.61 0.70 0.76 0.79 0.81 0.80
0.01 0.01 0.03 0.04 0.03 0.02 0.02 0.02 0.02 0.02 0.02 0.01 0.01 0.01 0.01 0.01 0.02 0.02 0.03 0.02 0.03 0.03 0.04 0.06 0.10 0.16 0.22 0.27 0.37 0.49 0.54 0.55 0.58 0.63 0.65 0.69 0.73 0.71 0.73 0.84 0.87 0.85 0.84 0.86
0.01 0.01 0.03 0.06 0.04 0.03 0.03 0.02 0.01 0.01 0.00 0.00 0.01 0.01 0.01 0.02 0.02 0.02 0.02 0.02 0.03 0.04 0.05 0.07 0.13 0.21 0.25 0.29 0.37 0.45 0.53 0.60 0.68 0.70 0.68 0.72 0.81 0.87 0.89 0.89 0.88 0.84 0.87 0.81
0.02 0.03 0.05 0.07 0.06 0.05 0.04 0.02 0.01 0.01 0.01 0.01 0.01 0.01 0.01 0.02 0.02 0.02 0.03 0.03 0.04 0.06 0.08 0.12 0.17 0.23 0.27 0.30 0.38 0.47 0.58 0.68 0.80 0.80 0.76 0.75 0.77 0.84 0.87 0.87 0.74 0.62 0.59 0.52